Location: Chiroubles
(46.1812°N, 4.6660°E)
Time: 05:37:36
(UTC+00:00)

Vanguard 1 - Visible Passes

Search period start: 27 November 2020 00:00
Search period end: 07 December 2020 00:00
Orbit: 650 x 3833 km, 34.2° (Epoch: 26 November)

Date Brightness Start Highest point End Pass type
(mag) Time Alt. Az. Time Alt. Az. Time Alt. Az.
27 Nov 12.5 03:23:48 10° SSE 03:25:47 11° SE 03:28:01 10° ESE visible
27 Nov 12.2 05:37:57 10° SW 05:44:29 36° SSE 05:55:34 10° E visible
28 Nov 12.2 03:43:02 12° S 03:45:57 16° SE 03:50:46 10° ESE visible
28 Nov 12.2 05:58:18 10° SW 06:05:04 39° SSE 06:16:48 10° ESE visible
29 Nov 11.9 04:03:05 15° S 04:06:13 21° SSE 04:12:32 10° ESE visible
29 Nov 12.2 06:18:46 10° WSW 06:25:45 41° S 06:37:57 10° ESE visible
30 Nov 11.7 04:23:05 16° SSW 04:26:36 26° SSE 04:33:57 10° ESE visible
01 Dec 11.7 04:43:05 16° SSW 04:47:05 30° SSE 04:55:12 10° ESE visible
02 Dec 12.5 02:50:18 11° SE 02:50:18 11° SE 02:51:13 10° ESE visible
02 Dec 11.7 05:03:02 14° SW 05:07:39 33° SSE 05:16:21 10° ESE visible
03 Dec 12.1 03:10:14 16° SE 03:10:14 16° SE 03:13:11 10° ESE visible
03 Dec 11.7 05:22:57 11° SW 05:28:17 35° S 05:37:23 10° ESE visible
04 Dec 11.8 03:30:08 21° SSE 03:30:08 21° SSE 03:34:36 10° ESE visible
04 Dec 11.8 05:43:17 10° WSW 05:48:58 34° S 05:58:18 10° ESE visible
05 Dec 11.4 03:50:01 25° SSE 03:50:01 25° SSE 03:55:47 10° ESE visible
05 Dec 11.9 06:03:55 10° WSW 06:09:42 33° S 06:19:05 10° SE visible
06 Dec 11.2 04:09:54 26° S 04:10:35 27° SSE 04:16:48 10° ESE visible
06 Dec 12.0 06:24:41 10° WSW 06:30:28 30° S 06:39:40 10° SE visible
